Probability
0 0 0 0 0 0 0 0 0 1 0 1 6 12 16 17 19 23 28 34 42 46 46 46 45 43 41 41 41 40 41 44 50 53 52 48 44 39 34 34 34 33 31 30
0 0 0 0 0 0 0 0 1 2 1 2 5 11 15 18 20 25 29 35 42 47 48 47 44 40 39 40 40 40 41 44 49 52 49 45 41 37 34 33 34 33 30 30
0 0 0 0 0 0 0 0 1 2 1 2 4 7 13 18 21 26 31 37 42 45 48 48 43 39 39 40 40 40 41 42 46 48 44 39 36 33 31 31 32 31 29 27
0 0 0 0 0 0 0 0 1 1 1 1 2 4 11 19 22 25 30 34 36 39 43 45 41 39 40 40 40 42 42 42 42 42 39 35 32 30 29 28 28 29 27 25
0 0 0 0 0 0 0 0 0 0 0 0 1 4 10 18 24 26 27 28 30 34 38 38 37 38 40 40 40 42 42 41 39 38 36 34 32 29 27 25 26 27 26 24
0 0 0 0 0 0 0 0 0 0 0 0 1 4 10 16 22 26 26 25 27 32 35 35 34 36 37 38 39 39 40 38 36 35 35 34 32 28 25 24 24 24 23 22
0 0 0 0 0 0 0 0 0 0 0 0 0 3 9 12 17 23 25 26 28 32 34 34 33 35 36 36 36 37 36 34 32 32 33 33 29 24 21 20 20 19 19 17
0 0 0 0 0 0 0 0 0 0 0 0 0 3 8 11 15 21 25 26 27 30 32 32 33 35 35 34 33 33 32 29 26 26 28 28 25 19 16 14 14 14 14 13
0 0 0 0 0 0 0 0 0 0 0 0 1 4 7 11 16 22 26 26 26 27 29 31 32 34 33 31 30 29 28 24 21 20 21 22 20 17 14 12 10 9 9 9
0 0 0 0 0 0 0 0 0 0 0 0 0 3 6 9 14 20 25 27 26 27 28 28 29 30 29 28 26 26 24 20 17 16 17 16 15 15 14 11 9 8 7 7
0 0 0 0 0 0 0 0 0 0 0 0 0 3 8 12 13 18 25 27 26 25 25 26 27 28 27 25 24 22 20 17 16 16 16 14 12 12 11 10 10 9 7 6
0 0 0 0 0 0 0 0 0 0 0 0 0 5 13 18 18 20 24 26 24 22 23 26 27 27 24 23 22 19 16 14 14 15 14 12 11 10 9 9 9 9 7 5
0 0 0 0 0 0 0 0 0 0 0 0 1 6 16 21 22 23 25 25 24 22 22 23 25 25 23 21 19 16 14 14 13 11 10 10 9 8 7 7 8 7 6 5
0 0 0 0 0 0 0 0 0 0 0 0 1 5 14 20 21 22 24 23 21 19 18 19 21 22 20 18 15 12 12 12 11 9 8 8 7 7 6 7 7 7 6 5
1 0 0 0 0 0 0 0 0 0 0 0 0 4 11 17 20 21 22 19 14 13 14 15 17 17 16 14 11 9 9 10 8 8 8 8 7 6 6 7 7 7 6 5
1 0 0 0 0 0 0 0 0 0 0 0 1 6 13 20 22 22 21 14 7 7 10 12 12 13 12 10 8 8 8 7 5 6 7 7 7 6 6 6 6 5 4 3
1 1 0 0 0 0 0 0 0 0 0 0 2 9 19 25 25 23 18 11 5 5 6 8 9 10 10 9 8 8 7 5 4 4 6 7 7 5 4 3 3 2 1 1
1 1 0 0 0 0 0 0 0 0 1 2 5 13 23 26 23 18 14 10 7 4 4 4 5 7 8 9 9 8 6 4 3 3 4 5 5 3 2 1 1 0 0 0
0 0 0 0 0 0 0 0 0 1 2 4 9 17 23 21 14 10 9 9 6 5 4 4 4 4 6 8 7 6 6 4 3 3 3 3 3 1 1 0 0 0 0 1
0 0 0 0 0 0 0 0 0 1 3 5 9 15 17 12 8 7 8 6 5 5 5 5 4 4 5 6 6 6 6 5 3 2 2 1 1 0 0 0 0 0 0 1
0 0 0 0 0 0 0 1 1 1 3 6 8 10 10 8 8 9 7 4 3 3 5 6 6 4 4 4 4 5 5 4 2 1 1 0 0 0 0 0 0 0 0 1
0 0 0 0 1 1 2 2 2 3 5 6 8 9 8 8 8 7 5 2 1 1 3 5 5 4 3 4 4 4 4 3 1 0 0 0 1 1 1 1 1 1 1 0
0 0 0 0 2 3 3 3 4 5 6 7 8 8 7 6 6 4 2 0 0 0 1 3 4 3 3 3 3 3 3 3 2 1 0 1 2 2 1 1 1 1 1 1
0 1 1 1 2 3 3 4 4 5 6 6 6 6 6 5 4 3 2 1 1 1 1 2 3 3 3 4 3 3 3 3 3 2 1 1 2 1 1 0 0 1 1 0
0 1 1 1 1 1 1 2 2 3 4 4 4 4 4 4 4 4 4 4 4 3 3 3 4 4 4 5 4 3 3 3 2 2 1 1 1 0 0 0 0 0 0 0
0 0 1 0 0 1 1 1 1 1 2 2 3 3 3 4 5 6 6 6 6 5 5 5 5 4 5 5 4 3 3 3 2 1 0 0 0 0 0 0 0 0 0 0
Wind_Speed
10 10 8 8 7 7 5 7 8 6 6 8 7 7 8 10 10 10 12 12 10 10 11 10 9 8 7 6 5 4 4 3 2 1 1 1 1 1 1 1 1 1 1 2
8 9 8 7 5 6 5 6 8 6 5 6 6 6 6 8 9 10 10 10 12 12 11 11 9 8 7 6 5 4 3 3 2 1 1 1 1 0 1 1 2 1 1 1
9 4 4 6 7 8 8 7 9 5 5 7 7 7 7 8 8 8 9 9 10 12 13 11 9 8 7 6 4 4 3 2 2 2 2 1 1 1 0 1 1 0 1 1
6 5 6 8 8 8 7 6 7 6 7 8 8 7 7 7 7 7 7 8 8 8 11 11 10 8 7 6 6 5 4 3 3 2 2 1 1 1 0 0 1 1 1 1
6 6 6 8 7 7 7 7 7 9 10 10 8 9 5 5 7 6 7 9 9 9 11 10 9 8 7 7 6 5 5 4 3 2 2 1 1 1 1 1 1 1 1 1
7 6 6 7 7 7 8 9 10 11 10 10 7 7 3 4 6 7 6 6 9 9 10 10 9 8 7 7 6 6 5 4 3 3 2 2 2 1 1 1 1 1 0 1
8 8 7 6 8 7 8 8 7 6 6 7 6 6 2 2 5 7 9 8 8 9 8 8 9 9 8 7 6 6 6 4 3 3 2 2 1 0 0 1 1 2 1 1
8 7 5 6 6 7 8 9 7 6 8 8 5 4 2 3 5 7 9 9 10 10 8 8 8 7 7 7 6 6 6 4 3 3 2 2 1 1 1 1 1 1 1 1
6 8 7 4 6 8 8 9 8 7 10 9 6 1 1 3 4 6 9 10 9 8 8 8 8 7 7 6 6 6 5 4 3 3 3 2 1 1 1 1 1 1 2 2
7 9 9 6 7 8 9 7 5 5 6 8 8 5 2 3 4 6 7 7 8 8 8 7 7 8 7 6 6 6 5 4 3 3 2 2 1 1 1 1 2 2 2 2
6 9 9 7 6 8 8 7 7 6 6 7 6 3 1 3 5 5 6 7 8 7 8 8 6 7 7 6 6 5 4 4 3 2 2 2 2 1 1 1 1 1 2 2
5 6 8 10 8 6 7 7 7 7 7 8 7 1 2 2 5 6 6 7 8 7 7 7 7 7 6 6 5 5 4 3 2 2 2 2 2 1 1 2 2 1 1 2
7 5 7 8 6 5 7 8 8 8 7 8 6 1 1 3 6 6 7 8 7 7 7 7 6 6 6 5 5 4 4 3 3 2 2 2 1 1 1 1 1 2 1 2
4 7 8 9 9 8 9 11 11 9 8 7 5 2 3 3 5 6 7 7 7 7 6 6 6 5 5 5 4 4 4 3 2 2 2 2 1 1 1 1 1 2 2 2
4 8 10 12 13 12 11 11 11 9 8 8 6 3 5 6 6 7 7 6 6 6 6 6 6 5 5 5 4 3 3 3 2 1 2 2 1 1 1 1 1 2 2 2
4 7 10 13 12 13 13 12 10 8 8 7 5 3 4 6 7 7 7 7 6 6 6 6 6 6 5 4 4 4 3 2 2 1 2 2 1 1 0 1 1 1 2 3
7 8 10 12 12 13 11 8 7 6 6 6 5 0 7 6 6 7 7 6 6 5 5 5 5 5 4 4 4 4 3 2 2 1 1 2 1 0 0 1 1 2 2 2
9 9 7 10 11 12 7 4 4 5 4 4 2 4 6 6 6 6 6 6 6 5 5 5 5 5 4 3 3 4 3 2 2 1 1 1 1 1 1 1 1 1 1 2
9 8 8 8 9 10 8 5 4 4 3 2 3 5 7 6 5 6 6 6 6 5 5 4 5 5 4 4 3 3 3 2 2 2 1 1 1 1 1 1 1 1 1 1
9 8 8 10 10 9 7 2 1 2 2 3 4 5 5 5 3 4 7 7 7 6 5 4 4 5 4 3 3 4 3 2 2 1 2 1 1 1 1 1 1 1 1 1
8 8 10 11 10 7 6 1 2 4 1 3 3 3 4 2 1 7 8 7 7 7 6 5 4 4 4 3 4 3 3 2 1 1 2 2 2 1 1 1 1 1 1 1
9 8 8 8 9 6 3 3 2 1 1 2 3 4 4 5 8 9 9 8 8 7 6 6 4 5 4 4 4 3 2 2 1 2 2 2 1 0 1 1 1 1 2 2
6 5 5 4 3 1 3 2 1 2 1 2 3 4 6 7 8 9 8 8 8 7 6 5 5 5 5 4 4 3 3 2 2 2 2 1 1 1 1 1 2 2 2 2
6 5 6 6 5 4 3 0 1 0 2 3 4 5 5 6 8 9 9 8 7 7 6 5 5 6 5 4 4 3 3 3 2 2 2 2 2 2 1 2 2 2 1 2
10 8 7 8 6 5 4 0 1 1 1 4 5 6 6 7 9 9 8 8 7 6 6 5 5 5 6 5 4 4 4 3 3 2 2 2 2 2 2 2 2 2 1 1
10 9 8 6 5 5 3 2 2 2 2 4 6 6 7 7 9 10 8 8 8 7 6 6 5 5 5 5 5 5 4 4 3 3 2 2 2 2 2 2 2 2 3 4
Wind_Direction
222 238 242 242 235 256 268 259 256 247 209 231 215 198 188 185 184 169 167 171 164 154 148 145 139 137 133 128 130 132 125 119 124 133 158 155 136 137 116 119 95 40 335 327
230 238 264 279 273 276 269 262 257 234 214 235 232 222 204 189 191 180 177 174 162 154 149 144 143 139 134 129 131 136 131 136 150 137 137 134 110 79 99 60 78 55 5 337
250 252 245 261 264 263 265 256 259 256 230 233 243 241 217 200 200 191 176 170 165 160 152 147 147 143 140 135 134 130 126 126 125 125 134 123 124 136 106 118 106 42 357 4
260 251 248 254 257 261 268 265 266 258 256 252 240 251 217 198 195 192 178 167 166 156 145 147 150 147 144 141 135 121 112 104 103 111 115 141 140 146 129 75 81 33 360 344
260 249 248 262 275 282 290 287 273 267 260 264 259 261 229 181 184 189 182 175 162 153 143 148 149 147 140 134 129 123 115 110 105 110 109 100 69 50 51 41 45 358 332 331
271 264 266 275 281 282 291 285 274 264 258 254 264 268 251 195 177 175 163 166 147 143 142 145 143 138 133 131 130 128 124 119 113 110 108 102 94 53 21 355 356 314 289 322
259 241 235 247 263 266 273 276 272 272 269 269 281 270 239 161 154 160 159 156 138 131 136 144 143 142 141 136 131 130 130 126 122 113 98 91 94 148 340 324 326 333 339 9
294 276 245 233 254 273 269 270 274 288 292 297 264 234 165 135 139 148 142 139 132 135 140 144 143 141 136 131 131 133 129 128 125 111 98 88 66 28 22 8 352 345 350 3
303 293 281 256 252 256 267 268 281 287 287 287 284 195 80 72 84 101 118 126 130 136 142 147 137 130 129 132 134 132 125 121 119 117 118 117 101 53 25 359 344 3 352 350
292 287 273 262 254 245 266 281 302 287 285 286 290 292 216 191 174 140 130 132 129 129 130 130 131 131 131 126 121 118 122 124 119 114 117 106 103 84 35 -0 14 15 7 357
298 293 288 275 262 276 271 274 280 273 279 287 281 303 132 190 157 140 139 133 130 133 134 130 130 133 135 134 136 134 133 128 125 115 96 76 70 51 25 36 23 13 1 327
310 298 291 285 283 285 283 285 283 285 286 284 290 314 107 143 136 130 132 125 126 126 126 130 132 134 142 142 142 140 134 124 116 107 100 88 70 53 35 34 20 350 328 313
338 307 292 282 270 279 286 284 281 284 286 286 291 299 105 125 115 121 129 125 124 127 127 132 138 143 144 143 147 136 128 121 117 111 106 92 72 45 32 14 353 323 319 321
304 283 275 274 283 287 284 285 284 281 283 290 296 258 215 171 129 130 127 125 129 135 137 138 139 135 142 147 146 134 125 120 130 126 115 106 82 56 34 15 360 341 339 325
269 274 272 270 271 270 273 279 281 280 286 286 289 248 207 178 147 138 134 136 136 143 148 149 146 140 147 142 133 124 120 124 118 122 122 117 96 65 40 6 339 344 337 341
266 275 282 278 272 275 276 275 278 284 284 278 277 264 156 134 129 133 144 150 150 154 153 150 149 146 140 137 136 130 129 129 131 151 146 125 117 92 44 346 7 2 348 355
269 271 281 281 282 283 273 279 284 292 301 311 316 32 126 126 137 147 156 158 156 148 146 148 148 145 144 142 143 145 144 143 167 164 136 131 128 94 28 351 21 8 353 351
264 271 271 277 285 274 283 287 284 290 302 320 2 122 131 138 137 137 149 153 151 144 146 145 146 144 146 142 142 150 150 163 179 161 142 139 131 88 36 34 33 15 353 345
236 252 268 273 269 270 272 276 288 296 300 6 80 105 114 116 132 139 140 144 141 139 135 137 144 147 152 151 153 155 151 156 164 150 145 128 108 93 57 45 21 4 345 318
227 220 244 261 270 276 283 294 351 285 257 86 103 120 134 156 188 153 141 142 137 129 124 130 136 135 140 142 147 152 150 158 163 148 139 120 113 99 62 43 16 349 314 291
246 236 241 256 263 266 290 320 302 277 76 84 119 142 157 203 119 127 134 135 131 128 129 132 135 134 133 135 142 154 156 159 152 145 130 105 108 127 121 87 347 299 286 289
262 263 261 262 265 264 320 298 337 52 116 121 127 137 136 122 121 133 139 136 136 138 139 138 137 132 130 137 147 151 148 140 143 134 116 108 109 200 122 123 268 267 264 261
274 285 284 282 264 276 325 341 82 144 143 143 146 142 144 147 146 146 146 144 143 146 143 142 144 141 139 147 152 154 152 157 154 130 121 132 177 239 203 225 253 250 250 257
278 283 284 281 259 263 261 227 52 58 166 152 152 153 155 151 149 150 148 147 148 150 151 155 152 152 151 159 160 162 169 165 152 145 152 182 212 217 224 248 255 251 261 284
286 287 278 270 269 279 273 220 104 87 162 150 148 150 151 150 151 152 152 152 154 156 155 156 155 162 161 164 171 181 171 159 153 162 178 210 230 225 236 245 278 283 301 269
268 268 268 273 269 274 270 260 189 183 192 164 151 152 153 152 154 155 154 156 158 157 158 161 166 172 169 174 181 179 172 169 167 185 202 224 236 228 234 231 233 247 238 229